Location: Anola
(49.8851°N, 96.6375°W)
Time: 08:45:39
(UTC-06:00)

Tiangong 2 - Visible Passes

Search period start: 21 January 2018 00:00
Search period end: 31 January 2018 00:00
Orbit: 384 x 390 km, 42.8° (Epoch: 20 January)

Date Brightness Start Highest point End Pass type
(mag) Time Alt. Az. Time Alt. Az. Time Alt. Az.
21 Jan 3.5 06:01:26 16° S 06:02:04 17° SSE 06:04:12 10° ESE visible
21 Jan 3.2 07:35:41 10° SW 07:38:16 23° S 07:40:52 10° SE visible
22 Jan 3.1 06:37:50 14° SW 06:39:44 22° S 06:42:18 10° ESE visible
23 Jan 3.5 05:41:53 19° SSE 05:41:53 19° SSE 05:43:38 10° ESE visible
23 Jan 3.2 07:14:55 10° WSW 07:17:25 21° S 07:19:55 10° SE visible
24 Jan 2.9 06:18:10 21° SSW 06:18:52 23° S 06:21:27 10° SE visible
25 Jan 4.0 05:22:08 14° SE 05:22:08 14° SE 05:22:52 10° ESE visible
25 Jan 3.3 06:54:24 11° WSW 06:56:31 18° SSW 06:58:47 10° SSE visible
26 Jan 3.1 05:58:22 20° S 05:58:22 20° S 06:00:28 10° SE visible
26 Jan 3.8 07:33:32 10° SW 07:34:02 10° SSW 07:34:32 10° SSW visible
27 Jan 3.4 06:34:37 13° SW 06:35:33 14° SSW 06:37:19 10° SSE visible
28 Jan 3.9 05:38:37 13° SSE 05:38:37 13° SSE 05:39:16 10° SSE visible
